Observations for Trim Patrick St
| Time | AQI | Temp °C | Hum % | Pres Pa | CO μg/m³ | H₂S μg/m³ | NO μg/m³ | NO₂ μg/m³ | O₃ μg/m³ | SO₂ μg/m³ | PM1 μg/m³ | PM2.5 μg/m³ | PM10 μg/m³ |
|---|---|---|---|---|---|---|---|---|---|---|---|---|---|
| Saturday 1 August 2026 | |||||||||||||
| 07:41 | 1 | 13.5 | 78 | 38,460 | 0.42 | 0 | 3.37 | 18.17 | 17.31 | 0 | 8 | 11.72 | 12.9 |
| 07:40 | 1 | 13.4 | 78 | 38,460 | 0.43 | 0 | 3.45 | 13.35 | 16.91 | 0 | 6.29 | 11.02 | 12.12 |
| 07:39 | 1 | 13.4 | 78 | 38,460 | 0.43 | 0 | 3.47 | 16.44 | 18.25 | 0 | 7.14 | 11.01 | 12.11 |
| 07:38 | 1 | 13.3 | 78 | 38,460 | 0.45 | 0 | 3.47 | 12.65 | 17.36 | 0 | 8 | 12.41 | 13.65 |
| 07:37 | 1 | 13.3 | 78 | 38,460 | 0.46 | 0 | 3.45 | 14.47 | 20.59 | 0 | 6.29 | 11.01 | 12.11 |
| 07:36 | 1 | 13.3 | 78 | 38,460 | 0.43 | 0 | 3.39 | 17.08 | 17.23 | 0 | 6.29 | 12.42 | 13.66 |
| 07:35 | 1 | 13.2 | 78 | 38,460 | 0.44 | 0 | 3.45 | 12.32 | 14.64 | 0 | 5.43 | 10.31 | 11.34 |
| 07:34 | 1 | 13.2 | 76 | 38,460 | 0.44 | 0 | 3.51 | 15.53 | 19.6 | 0 | 6.29 | 11.83 | 13.02 |
| 07:33 | 1 | 13.2 | 78 | 38,460 | 0.44 | 0 | 3.49 | 14.15 | 16.06 | 0 | 8.86 | 13.82 | 15.2 |
| 07:32 | 1 | 13.2 | 77 | 38,460 | 0.45 | 0 | 3.56 | 16.41 | 16.35 | 0 | 8 | 11.78 | 12.96 |
| 07:31 | 1 | 13.1 | 78 | 38,460 | 0.46 | 0 | 3.48 | 14.52 | 18.37 | 0 | 7.14 | 10.97 | 12.07 |
| 07:30 | 1 | 13.1 | 78 | 38,460 | 0.48 | 0 | 3.42 | 16.78 | 16.22 | 0 | 4.57 | 10.27 | 11.29 |
| 07:28 | 1 | 13.1 | 78 | 38,460 | 0.47 | 0 | 3.4 | 15.82 | 13.9 | 0 | 8 | 11.66 | 12.82 |
| 07:26 | 1 | 13 | 77 | 38,460 | 0.48 | 0 | 3.57 | 14.89 | 12.79 | 0 | 8 | 12.47 | 13.72 |
| 07:24 | 1 | 12.9 | 78 | 38,460 | 0.48 | 0 | 3.45 | 13.92 | 15.03 | 0 | 7.14 | 12.36 | 13.6 |
| 07:22 | 1 | 12.9 | 78 | 38,460 | 0.5 | 0 | 3.54 | 15.7 | 15.15 | 0 | 8 | 13.07 | 14.38 |
| 07:21 | 2 | 12.8 | 80 | 38,460 | 0.51 | 0.35 | 3.41 | 19.11 | 18.18 | 0 | 8.86 | 12.96 | 14.25 |
| 07:20 | 2 | 12.8 | 80 | 38,460 | 0.49 | 0 | 3.37 | 19.43 | 15.14 | 0 | 7.14 | 13.66 | 15.02 |
| 07:19 | 2 | 12.7 | 80 | 38,460 | 0.5 | 0 | 3.44 | 14.48 | 16.38 | 0 | 8 | 12.95 | 14.24 |
| 07:18 | 2 | 12.7 | 80 | 38,460 | 0.5 | 0.43 | 3.48 | 22.27 | 22.49 | 0 | 8.86 | 14.35 | 15.78 |